Regional Weather Roundup
Issued by NWS Newport/Morehead, NC

Current Version | Previous Version | Text Only | Print | Product List | Glossary Off
Versions: 1 2 3 4 5 6 7 8 9 10 11 12 13 14 15 16 17 18 19 20 21 22 23 24 25 26 27 28 29 30 31 32 33 34 35 36 37 38 39 40 41 42 43 44 45 46 47 48 49 50
000 ASUS42 KMHX 191026 RWRMHX WEATHER ROUNDUP FOR EASTERN NORTH CAROLINA NATIONAL WEATHER SERVICE NEWPORT/MOREHEAD CITY NC 600 AM EDT THU APR 19 2018 NOTE: "FAIR" INDICATES FEW OR NO CLOUDS BELOW 12,000 FEET WITH NO SIGNIFICANT WEATHER AND/OR OBSTRUCTIONS TO VISIBILITY NCZ015>017-031-032-045>047-102-103-191100- NORTH COAST CITY SKY/WX TMP DP RH WIND PRES REMARKS EDENTON FAIR 67 55 64 SW10 29.69S ELIZABETH CITY FAIR 65 54 67 SW14 29.66R KITTY HAWK FAIR 65 53 65 SW9 29.68R MANTEO FAIR 65 54 66 SW14 29.70R $$ NCZ045>047-081-094-103-104-191100- CENTRAL COAST CITY SKY/WX TMP DP RH WIND PRES REMARKS FRISCO FAIR 66 58 75 SW21G29 29.75S $$ NCZ095-097-098-100-101-191100- SOUTHERN COAST CITY SKY/WX TMP DP RH WIND PRES REMARKS BEAUFORT FAIR 64 56 75 SW20G30 29.78S CEDAR ISLAND NOT AVBL JACKSONVILLE FAIR 69 50 50 SW15G22 29.76S PINEY ISLAND NOT AVBL WILMINGTON FAIR 66 52 60 SW13 29.80S $$ NCZ011>013-027>030-043-044-078>080-089-090>093-098-191100- COASTAL PLAIN CITY SKY/WX TMP DP RH WIND PRES REMARKS AHOSKIE FAIR 62 50 64 SW3 29.67R CLINTON FAIR 66 53 61 SW8 29.76R ELIZABETHTOWN FAIR 67 51 56 MISG 29.78S GOLDSBORO FAIR 68 52 55 SW10 29.71R GREENVILLE FAIR 64 52 63 SW12 29.74S HAVELOCK NOT AVBL KENANSVILLE FAIR 68 52 56 SW15G21 29.75S KINSTON FAIR 67 51 56 SW10 29.73S NEW BERN FAIR 67 50 54 SW9G21 29.75S RICHLANDS FAIR 65 51 60 SW12 29.76F ROCKY MOUNT FAIR 66 50 56 SW12 29.69S WASHINGTON FAIR 67 51 57 SW13 29.71S WHITEVILLE FAIR 68 51 54 SW10 29.79S $$ AMZ130-135-150-152-154-156-158-170-250-252-270-ANZ085-086-088-633-658-670-191100- MARINE OBSERVATIONS STATION/POSITION TIME TEMP WIND PRES WAVE SWELL AIR SEA DIR/SP/G HT/PER HT/PER (UTC) (F) (DEG/KT/KT) (MB) (FT/S) (FT/S) CHESAPEAKE LIGHT NOT AVBL 64 E VA BEACH 0950 56 50 210/ 19/ 23 1004.0 6/ 6 2/15 DUCK 1000 67 48 220/ 15/ 20 1004.2 2 E DUCK 1000 49 N/A 2/15 2/15 OREGON INLET 0948 63 62 200/ 19/ 23 1005.7 13E OREGON INLT 0948 52 N/A 5/ 5 2/15 HATTERAS CG 1000 65 63 230/ 15/ 21 1007.2 DIAMOND BUOY 1010 71 69 230/ 27/ 33 1008.2 CAPE LOOKOUT 1000 230/ 15/ 21 1008.8 BEAUFORT LAB 1000 64 62 220/ 8/ 15 1008.6 30 SE NEW RVR IN 1008 68 65 220/ 19/ 25 1009.3 30 SE NEW RVR IN 1000 66 N/A 8/ 7 27 SE WRIGHTSVLE 1008 67 64 220/ 23/ 33 1009.9 5 SE WRIGHTSVLE 1008 63 60 240/ 14/ 19 1009.2 225 S CAPE HAT 1010 71 72 220/ 21/ 27 1015.6 41 SE CHARLESTON 1010 68 67 240/ 21/ 27 1013.2 $$

USA.gov is the U.S. government's official web portal to all federal, state and local government web resources and services.